owner,sensor,date,latitude,longitude,air_pressure(mBar),qcFlag 
TABS,ioos:station:wmo:42043:1,2012-04-01T00:00:00Z,28.9818,-94.9186,1010.55,11111222 
TABS,ioos:station:wmo:42043:1,2012-04-01T00:30:00Z,28.9818,-94.9186,1010.64,11111222 
TABS,ioos:station:wmo:42043:1,2012-04-01T01:00:00Z,28.9818,-94.9186,1010.78,11111222 
TABS,ioos:station:wmo:42043:1,2012-04-01T01:30:00Z,28.9818,-94.9186,1010.92,11111222 
TABS,ioos:station:wmo:42043:1,2012-04-01T02:00:00Z,28.9818,-94.9186,1011.22,11111222 
TABS,ioos:station:wmo:42043:1,2012-04-01T02:30:00Z,28.9818,-94.9186,1011.31,11111222 
TABS,ioos:station:wmo:42043:1,2012-04-01T03:00:00Z,28.9818,-94.9186,1011.38,11111222 
TABS,ioos:station:wmo:42043:1,2012-04-01T03:30:00Z,28.9818,-94.9186,1011.29,11111222 
TABS,ioos:station:wmo:42043:1,2012-04-01T04:00:00Z,28.9818,-94.9186,1011.31,11111222 
TABS,ioos:station:wmo:42043:1,2012-04-01T04:30:00Z,28.9818,-94.9186,1011.34,11111222 
TABS,ioos:station:wmo:42043:1,2012-04-01T05:00:00Z,28.9818,-94.9186,1011.14,11111222 
TABS,ioos:station:wmo:42043:1,2012-04-01T05:30:00Z,28.9818,-94.9186,1011.03,11111222 
TABS,ioos:station:wmo:42043:1,2012-04-01T06:00:00Z,28.9818,-94.9186,1010.71,11111222 
TABS,ioos:station:wmo:42043:1,2012-04-01T06:30:00Z,28.9818,-94.9186,1010.51,11111222 
TABS,ioos:station:wmo:42043:1,2012-04-01T07:00:00Z,28.9818,-94.9186,1010.53,11111222 
TABS,ioos:station:wmo:42043:1,2012-04-01T07:30:00Z,28.9818,-94.9186,1010.63,11111222 
TABS,ioos:station:wmo:42043:1,2012-04-01T08:00:00Z,28.9818,-94.9186,1010.36,11111222 
TABS,ioos:station:wmo:42043:1,2012-04-01T08:30:00Z,28.9818,-94.9186,1010.14,11111222 
TABS,ioos:station:wmo:42043:1,2012-04-01T09:00:00Z,28.9818,-94.9186,1009.81,11111222 
TABS,ioos:station:wmo:42043:1,2012-04-01T09:30:00Z,28.9818,-94.9186,1009.72,11111222 
TABS,ioos:station:wmo:42043:1,2012-04-01T10:00:00Z,28.9818,-94.9186,1010.19,11111222 
TABS,ioos:station:wmo:42043:1,2012-04-01T10:30:00Z,28.9818,-94.9186,1010.55,11111222 
TABS,ioos:station:wmo:42043:1,2012-04-01T11:00:00Z,28.9818,-94.9186,1010.82,11111222 
TABS,ioos:station:wmo:42043:1,2012-04-01T11:30:00Z,28.9818,-94.9186,1010.77,11111222 
TABS,ioos:station:wmo:42043:1,2012-04-01T12:00:00Z,28.9818,-94.9186,1010.81,11111222 
TABS,ioos:station:wmo:42043:1,2012-04-01T12:30:00Z,28.9818,-94.9186,1010.94,11111222 
TABS,ioos:station:wmo:42043:1,2012-04-01T13:00:00Z,28.9818,-94.9186,1011.03,11111222 
TABS,ioos:station:wmo:42043:1,2012-04-01T13:30:00Z,28.9818,-94.9186,1011.17,11111222 
TABS,ioos:station:wmo:42043:1,2012-04-01T14:00:00Z,28.9818,-94.9186,1011.31,11111222 
TABS,ioos:station:wmo:42043:1,2012-04-01T14:30:00Z,28.9818,-94.9186,1011.5,11111222 
TABS,ioos:station:wmo:42043:1,2012-04-01T15:00:00Z,28.9818,-94.9186,1011.5,11111222 
TABS,ioos:station:wmo:42043:1,2012-04-01T15:30:00Z,28.9818,-94.9186,1011.79,11111222 
TABS,ioos:station:wmo:42043:1,2012-04-01T16:00:00Z,28.9818,-94.9186,1011.81,11111222 
TABS,ioos:station:wmo:42043:1,2012-04-01T16:30:00Z,28.9818,-94.9186,1011.58,11111222 
TABS,ioos:station:wmo:42043:1,2012-04-01T17:00:00Z,28.9818,-94.9186,1011.49,11111222 
TABS,ioos:station:wmo:42043:1,2012-04-01T17:30:00Z,28.9818,-94.9186,1011.36,11111222 
TABS,ioos:station:wmo:42043:1,2012-04-01T18:00:00Z,28.9818,-94.9186,1011.11,11111222 
TABS,ioos:station:wmo:42043:1,2012-04-01T18:30:00Z,28.9818,-94.9186,1010.86,11111222 
TABS,ioos:station:wmo:42043:1,2012-04-01T19:00:00Z,28.9818,-94.9186,1010.6,11111222 
TABS,ioos:station:wmo:42043:1,2012-04-01T19:30:00Z,28.9818,-94.9186,1010.13,11111222 
TABS,ioos:station:wmo:42043:1,2012-04-01T20:00:00Z,28.9818,-94.9186,1009.52,11111222 
TABS,ioos:station:wmo:42043:1,2012-04-01T20:30:00Z,28.9818,-94.9186,1009.09,11111222 
TABS,ioos:station:wmo:42043:1,2012-04-01T21:00:00Z,28.9818,-94.9186,1008.77,11111222 
TABS,ioos:station:wmo:42043:1,2012-04-01T21:30:00Z,28.9818,-94.9186,1008.22,11111222 
TABS,ioos:station:wmo:42043:1,2012-04-01T22:00:00Z,28.9818,-94.9186,1007.96,11111222 
TABS,ioos:station:wmo:42043:1,2012-04-01T22:30:00Z,28.9818,-94.9186,1007.77,11111222 
TABS,ioos:station:wmo:42043:1,2012-04-01T23:00:00Z,28.9818,-94.9186,1007.44,11111222 
TABS,ioos:station:wmo:42043:1,2012-04-01T23:30:00Z,28.9818,-94.9186,1007.49,11111222 
TABS,ioos:station:wmo:42043:1,2012-04-02T00:00:00Z,28.9818,-94.9186,1007.58,11111222 
TABS,ioos:station:wmo:42043:1,2012-04-02T00:30:00Z,28.9818,-94.9186,1007.57,11111222 
TABS,ioos:station:wmo:42043:1,2012-04-02T01:00:00Z,28.9818,-94.9186,1007.87,11111222 
TABS,ioos:station:wmo:42043:1,2012-04-02T01:30:00Z,28.9818,-94.9186,1008.26,11111222 
TABS,ioos:station:wmo:42043:1,2012-04-02T02:00:00Z,28.9818,-94.9186,1008.51,11111222 
TABS,ioos:station:wmo:42043:1,2012-04-02T02:30:00Z,28.9818,-94.9186,1008.83,11111222 
TABS,ioos:station:wmo:42043:1,2012-04-02T03:00:00Z,28.9818,-94.9186,1009.16,11111222 
TABS,ioos:station:wmo:42043:1,2012-04-02T03:30:00Z,28.9818,-94.9186,1008.92,11111222 
TABS,ioos:station:wmo:42043:1,2012-04-02T04:00:00Z,28.9818,-94.9186,1008.88,11111222 
TABS,ioos:station:wmo:42043:1,2012-04-02T04:30:00Z,28.9818,-94.9186,1008.66,11111222 
TABS,ioos:station:wmo:42043:1,2012-04-02T05:00:00Z,28.9818,-94.9186,1008.32,11111222 
TABS,ioos:station:wmo:42043:1,2012-04-02T05:30:00Z,28.9818,-94.9186,1008.28,11111222 
TABS,ioos:station:wmo:42043:1,2012-04-02T06:00:00Z,28.9818,-94.9186,1008.16,11111222 
TABS,ioos:station:wmo:42043:1,2012-04-02T06:30:00Z,28.9818,-94.9186,1007.48,11111222 
TABS,ioos:station:wmo:42043:1,2012-04-02T07:00:00Z,28.9818,-94.9186,1007.32,11111222 
TABS,ioos:station:wmo:42043:1,2012-04-02T07:30:00Z,28.9818,-94.9186,1007.09,11111222 
TABS,ioos:station:wmo:42043:1,2012-04-02T08:00:00Z,28.9818,-94.9186,1006.84,11111222 
TABS,ioos:station:wmo:42043:1,2012-04-02T08:30:00Z,28.9818,-94.9186,1006.29,11111222 
TABS,ioos:station:wmo:42043:1,2012-04-02T09:00:00Z,28.9818,-94.9186,1005.96,11111222 
TABS,ioos:station:wmo:42043:1,2012-04-02T09:30:00Z,28.9818,-94.9186,1006.04,11111222 
TABS,ioos:station:wmo:42043:1,2012-04-02T10:00:00Z,28.9818,-94.9186,1005.3,11111222 
TABS,ioos:station:wmo:42043:1,2012-04-02T10:30:00Z,28.9818,-94.9186,1005.72,11111222 
TABS,ioos:station:wmo:42043:1,2012-04-02T11:00:00Z,28.9818,-94.9186,1005.53,11111222 
TABS,ioos:station:wmo:42043:1,2012-04-02T11:30:00Z,28.9818,-94.9186,1005.32,11111222 
TABS,ioos:station:wmo:42043:1,2012-04-02T12:00:00Z,28.9818,-94.9186,1005.8,11111222 
TABS,ioos:station:wmo:42043:1,2012-04-02T12:30:00Z,28.9818,-94.9186,1007.1,11111222 
TABS,ioos:station:wmo:42043:1,2012-04-02T13:00:00Z,28.9818,-94.9186,1007.47,11111222 
TABS,ioos:station:wmo:42043:1,2012-04-02T13:30:00Z,28.9818,-94.9186,1007.6,11111222 
TABS,ioos:station:wmo:42043:1,2012-04-02T14:00:00Z,28.9818,-94.9186,1007.02,11111222 
TABS,ioos:station:wmo:42043:1,2012-04-02T14:30:00Z,28.9818,-94.9186,1004.66,11111222 
TABS,ioos:station:wmo:42043:1,2012-04-02T15:00:00Z,28.9818,-94.9186,1005.4,11111222 
TABS,ioos:station:wmo:42043:1,2012-04-02T15:30:00Z,28.9818,-94.9186,1005.64,11111222 
TABS,ioos:station:wmo:42043:1,2012-04-02T16:00:00Z,28.9818,-94.9186,1006.78,11111222 
TABS,ioos:station:wmo:42043:1,2012-04-02T16:30:00Z,28.9818,-94.9186,1007.04,11111222 
TABS,ioos:station:wmo:42043:1,2012-04-02T17:00:00Z,28.9818,-94.9186,1006.96,11111222 
TABS,ioos:station:wmo:42043:1,2012-04-02T17:30:00Z,28.9818,-94.9186,1006.37,11111222 
TABS,ioos:station:wmo:42043:1,2012-04-02T18:00:00Z,28.9818,-94.9186,1006.7,11111222 
TABS,ioos:station:wmo:42043:1,2012-04-02T18:30:00Z,28.9818,-94.9186,1006.3,11111222 
TABS,ioos:station:wmo:42043:1,2012-04-02T19:00:00Z,28.9818,-94.9186,1006.36,11111222 
TABS,ioos:station:wmo:42043:1,2012-04-02T19:30:00Z,28.9818,-94.9186,1005.99,11111222 
TABS,ioos:station:wmo:42043:1,2012-04-02T20:00:00Z,28.9818,-94.9186,1005.74,11111222 
TABS,ioos:station:wmo:42043:1,2012-04-02T20:30:00Z,28.9818,-94.9186,1005.57,11111222 
TABS,ioos:station:wmo:42043:1,2012-04-02T21:00:00Z,28.9818,-94.9186,1005.39,11111222 
TABS,ioos:station:wmo:42043:1,2012-04-02T21:30:00Z,28.9818,-94.9186,1005.24,11111222 
TABS,ioos:station:wmo:42043:1,2012-04-02T22:00:00Z,28.9818,-94.9186,1005.07,11111222 
TABS,ioos:station:wmo:42043:1,2012-04-02T22:30:00Z,28.9818,-94.9186,1004.96,11111222 
TABS,ioos:station:wmo:42043:1,2012-04-02T23:00:00Z,28.9818,-94.9186,1005.08,11111222 
TABS,ioos:station:wmo:42043:1,2012-04-02T23:30:00Z,28.9818,-94.9186,1005.11,11111222 
TABS,ioos:station:wmo:42043:1,2012-04-03T00:00:00Z,28.9818,-94.9186,1005.15,11111222 
TABS,ioos:station:wmo:42043:1,2012-04-03T00:30:00Z,28.9818,-94.9186,1005.01,11111222 
TABS,ioos:station:wmo:42043:1,2012-04-03T01:00:00Z,28.9818,-94.9186,1004.68,11111222 
TABS,ioos:station:wmo:42043:1,2012-04-03T01:30:00Z,28.9818,-94.9186,1005.18,11111222 
TABS,ioos:station:wmo:42043:1,2012-04-03T02:00:00Z,28.9818,-94.9186,1005.61,11111222 
TABS,ioos:station:wmo:42043:1,2012-04-03T02:30:00Z,28.9818,-94.9186,1005.67,11111222 
TABS,ioos:station:wmo:42043:1,2012-04-03T03:00:00Z,28.9818,-94.9186,1005.82,11111222 
TABS,ioos:station:wmo:42043:1,2012-04-03T03:30:00Z,28.9818,-94.9186,1005.77,11111222 
TABS,ioos:station:wmo:42043:1,2012-04-03T04:00:00Z,28.9818,-94.9186,1005.81,11111222 
TABS,ioos:station:wmo:42043:1,2012-04-03T04:30:00Z,28.9818,-94.9186,1006.14,11111222 
TABS,ioos:station:wmo:42043:1,2012-04-03T05:00:00Z,28.9818,-94.9186,1006.29,11111222 
TABS,ioos:station:wmo:42043:1,2012-04-03T05:30:00Z,28.9818,-94.9186,1006.42,11111222 
TABS,ioos:station:wmo:42043:1,2012-04-03T06:00:00Z,28.9818,-94.9186,1007.04,11111222 
TABS,ioos:station:wmo:42043:1,2012-04-03T06:30:00Z,28.9818,-94.9186,1007.33,11111222 
TABS,ioos:station:wmo:42043:1,2012-04-03T07:00:00Z,28.9818,-94.9186,1007.04,11111222 
TABS,ioos:station:wmo:42043:1,2012-04-03T07:30:00Z,28.9818,-94.9186,1007.22,11111222 
TABS,ioos:station:wmo:42043:1,2012-04-03T08:00:00Z,28.9818,-94.9186,1007.38,11111222 
TABS,ioos:station:wmo:42043:1,2012-04-03T08:30:00Z,28.9818,-94.9186,1007.63,11111222 
TABS,ioos:station:wmo:42043:1,2012-04-03T09:00:00Z,28.9818,-94.9186,1007.4,11111222 
TABS,ioos:station:wmo:42043:1,2012-04-03T09:30:00Z,28.9818,-94.9186,1007.29,11111222 
TABS,ioos:station:wmo:42043:1,2012-04-03T10:00:00Z,28.9818,-94.9186,1007.26,11111222 
TABS,ioos:station:wmo:42043:1,2012-04-03T10:30:00Z,28.9818,-94.9186,1007.46,11111222 
TABS,ioos:station:wmo:42043:1,2012-04-03T11:00:00Z,28.9818,-94.9186,1007.47,11111222 
TABS,ioos:station:wmo:42043:1,2012-04-03T11:30:00Z,28.9818,-94.9186,1007.7,11111222 
TABS,ioos:station:wmo:42043:1,2012-04-03T12:00:00Z,28.9818,-94.9186,1007.89,11111222 
TABS,ioos:station:wmo:42043:1,2012-04-03T12:30:00Z,28.9818,-94.9186,1008.2,11111222 
TABS,ioos:station:wmo:42043:1,2012-04-03T13:00:00Z,28.9818,-94.9186,1008.28,11111222 
TABS,ioos:station:wmo:42043:1,2012-04-03T13:30:00Z,28.9818,-94.9186,1008.13,11111222 
TABS,ioos:station:wmo:42043:1,2012-04-03T14:00:00Z,28.9818,-94.9186,1008.28,11111222 
TABS,ioos:station:wmo:42043:1,2012-04-03T14:30:00Z,28.9818,-94.9186,1008.16,11111222 
TABS,ioos:station:wmo:42043:1,2012-04-03T15:00:00Z,28.9818,-94.9186,1008.82,11111222 
TABS,ioos:station:wmo:42043:1,2012-04-03T15:30:00Z,28.9818,-94.9186,1009.56,11111222 
TABS,ioos:station:wmo:42043:1,2012-04-03T16:00:00Z,28.9818,-94.9186,1010.46,11111222 
TABS,ioos:station:wmo:42043:1,2012-04-03T16:30:00Z,28.9818,-94.9186,1011.12,11111222 
TABS,ioos:station:wmo:42043:1,2012-04-03T17:00:00Z,28.9818,-94.9186,1011.32,11111222 
TABS,ioos:station:wmo:42043:1,2012-04-03T17:30:00Z,28.9818,-94.9186,1010.69,11111222 
TABS,ioos:station:wmo:42043:1,2012-04-03T18:00:00Z,28.9818,-94.9186,1010.15,11111222 
TABS,ioos:station:wmo:42043:1,2012-04-03T18:30:00Z,28.9818,-94.9186,1009.87,11111222 
TABS,ioos:station:wmo:42043:1,2012-04-03T19:00:00Z,28.9818,-94.9186,1009.84,11111222 
TABS,ioos:station:wmo:42043:1,2012-04-03T19:30:00Z,28.9818,-94.9186,1009.57,11111222 
TABS,ioos:station:wmo:42043:1,2012-04-03T20:00:00Z,28.9818,-94.9186,1009.05,11111222 
TABS,ioos:station:wmo:42043:1,2012-04-03T20:30:00Z,28.9818,-94.9186,1008.7,11111222 
TABS,ioos:station:wmo:42043:1,2012-04-03T21:00:00Z,28.9818,-94.9186,1008.3,11111222 
TABS,ioos:station:wmo:42043:1,2012-04-03T21:30:00Z,28.9818,-94.9186,1007.75,11111222 
TABS,ioos:station:wmo:42043:1,2012-04-03T22:00:00Z,28.9818,-94.9186,1007.36,11111222 
TABS,ioos:station:wmo:42043:1,2012-04-03T22:30:00Z,28.9818,-94.9186,1007.24,11111222 
TABS,ioos:station:wmo:42043:1,2012-04-03T23:00:00Z,28.9818,-94.9186,1007.28,11111222 
TABS,ioos:station:wmo:42043:1,2012-04-03T23:30:00Z,28.9818,-94.9186,1006.96,11111222 
TABS,ioos:station:wmo:42043:1,2012-04-04T00:00:00Z,28.9818,-94.9186,1006.81,11111222 
TABS,ioos:station:wmo:42043:1,2012-04-04T00:30:00Z,28.9818,-94.9186,1007.41,11111222 
TABS,ioos:station:wmo:42043:1,2012-04-04T01:00:00Z,28.9818,-94.9186,1007.56,11111222 
TABS,ioos:station:wmo:42043:1,2012-04-04T01:30:00Z,28.9818,-94.9186,1007.81,11111222 
TABS,ioos:station:wmo:42043:1,2012-04-04T02:00:00Z,28.9818,-94.9186,1007.96,11111222 
TABS,ioos:station:wmo:42043:1,2012-04-04T02:30:00Z,28.9818,-94.9186,1008.6,11111222 
TABS,ioos:station:wmo:42043:1,2012-04-04T03:00:00Z,28.9818,-94.9186,1009.21,11111222 
TABS,ioos:station:wmo:42043:1,2012-04-04T03:30:00Z,28.9818,-94.9186,1009.08,11111222 
TABS,ioos:station:wmo:42043:1,2012-04-04T04:00:00Z,28.9818,-94.9186,1009.31,11111222 
TABS,ioos:station:wmo:42043:1,2012-04-04T04:30:00Z,28.9818,-94.9186,1009.03,11111222 
TABS,ioos:station:wmo:42043:1,2012-04-04T05:00:00Z,28.9818,-94.9186,1009.02,11111222 
TABS,ioos:station:wmo:42043:1,2012-04-04T05:30:00Z,28.9818,-94.9186,1009.2,11111222 
TABS,ioos:station:wmo:42043:1,2012-04-04T06:00:00Z,28.9818,-94.9186,1009.38,11111222 
TABS,ioos:station:wmo:42043:1,2012-04-04T06:30:00Z,28.9818,-94.9186,1009.27,11111222 
TABS,ioos:station:wmo:42043:1,2012-04-04T07:00:00Z,28.9818,-94.9186,1009.59,11111222 
TABS,ioos:station:wmo:42043:1,2012-04-04T07:30:00Z,28.9818,-94.9186,1009.73,11111222 
TABS,ioos:station:wmo:42043:1,2012-04-04T08:00:00Z,28.9818,-94.9186,1009.16,11111222 
TABS,ioos:station:wmo:42043:1,2012-04-04T08:30:00Z,28.9818,-94.9186,1008.42,11111222 
TABS,ioos:station:wmo:42043:1,2012-04-04T09:00:00Z,28.9818,-94.9186,1008.48,11111222 
TABS,ioos:station:wmo:42043:1,2012-04-04T09:30:00Z,28.9818,-94.9186,1008.57,11111222 
TABS,ioos:station:wmo:42043:1,2012-04-04T10:00:00Z,28.9818,-94.9186,1008.24,11111222 
TABS,ioos:station:wmo:42043:1,2012-04-04T10:30:00Z,28.9818,-94.9186,1008.84,11111222 
TABS,ioos:station:wmo:42043:1,2012-04-04T11:00:00Z,28.9818,-94.9186,1009.04,11111222 
TABS,ioos:station:wmo:42043:1,2012-04-04T11:30:00Z,28.9818,-94.9186,1009.38,11111222 
TABS,ioos:station:wmo:42043:1,2012-04-04T12:00:00Z,28.9818,-94.9186,1010.07,11111222 
TABS,ioos:station:wmo:42043:1,2012-04-04T12:30:00Z,28.9818,-94.9186,1010.32,11111222 
TABS,ioos:station:wmo:42043:1,2012-04-04T13:00:00Z,28.9818,-94.9186,1010.41,11111222 
TABS,ioos:station:wmo:42043:1,2012-04-04T13:30:00Z,28.9818,-94.9186,1010.55,11111222 
TABS,ioos:station:wmo:42043:1,2012-04-04T14:00:00Z,28.9818,-94.9186,1010.97,11111222 
TABS,ioos:station:wmo:42043:1,2012-04-04T14:30:00Z,28.9818,-94.9186,1010.91,11111222 
TABS,ioos:station:wmo:42043:1,2012-04-04T15:00:00Z,28.9818,-94.9186,1011.02,11111222 
TABS,ioos:station:wmo:42043:1,2012-04-04T15:30:00Z,28.9818,-94.9186,1011.04,11111222 
TABS,ioos:station:wmo:42043:1,2012-04-04T16:00:00Z,28.9818,-94.9186,1010.7,11111222 
TABS,ioos:station:wmo:42043:1,2012-04-04T16:30:00Z,28.9818,-94.9186,1010.1,11111222 
TABS,ioos:station:wmo:42043:1,2012-04-04T17:00:00Z,28.9818,-94.9186,1010.2,11111222 
TABS,ioos:station:wmo:42043:1,2012-04-04T17:30:00Z,28.9818,-94.9186,1010.39,11111222 
TABS,ioos:station:wmo:42043:1,2012-04-04T18:00:00Z,28.9818,-94.9186,1009.86,11111222 
TABS,ioos:station:wmo:42043:1,2012-04-04T18:30:00Z,28.9818,-94.9186,1009.61,11111222 
TABS,ioos:station:wmo:42043:1,2012-04-04T19:00:00Z,28.9818,-94.9186,1009.0,11111222 
TABS,ioos:station:wmo:42043:1,2012-04-04T19:30:00Z,28.9818,-94.9186,1008.55,11111222 
TABS,ioos:station:wmo:42043:1,2012-04-04T20:00:00Z,28.9818,-94.9186,1008.59,11111222 
TABS,ioos:station:wmo:42043:1,2012-04-04T20:30:00Z,28.9818,-94.9186,1007.99,11111222 
TABS,ioos:station:wmo:42043:1,2012-04-04T21:00:00Z,28.9818,-94.9186,1007.05,11111222 
TABS,ioos:station:wmo:42043:1,2012-04-04T21:30:00Z,28.9818,-94.9186,1006.9,11111222 
TABS,ioos:station:wmo:42043:1,2012-04-04T22:00:00Z,28.9818,-94.9186,1007.65,11111222 
TABS,ioos:station:wmo:42043:1,2012-04-04T22:30:00Z,28.9818,-94.9186,1007.28,11111222 
TABS,ioos:station:wmo:42043:1,2012-04-04T23:00:00Z,28.9818,-94.9186,1007.12,11111222 
TABS,ioos:station:wmo:42043:1,2012-04-04T23:30:00Z,28.9818,-94.9186,1007.41,11111222 
TABS,ioos:station:wmo:42043:1,2012-04-05T00:00:00Z,28.9818,-94.9186,1007.04,11111222 
TABS,ioos:station:wmo:42043:1,2012-04-05T00:30:00Z,28.9818,-94.9186,1006.45,11111222 
TABS,ioos:station:wmo:42043:1,2012-04-05T01:00:00Z,28.9818,-94.9186,1007.48,11111222 
TABS,ioos:station:wmo:42043:1,2012-04-05T01:30:00Z,28.9818,-94.9186,1008.21,11111222 
TABS,ioos:station:wmo:42043:1,2012-04-05T02:00:00Z,28.9818,-94.9186,1008.7,11111222 
TABS,ioos:station:wmo:42043:1,2012-04-05T02:30:00Z,28.9818,-94.9186,1008.72,11111222 
TABS,ioos:station:wmo:42043:1,2012-04-05T03:00:00Z,28.9818,-94.9186,1009.05,11111222 
TABS,ioos:station:wmo:42043:1,2012-04-05T03:30:00Z,28.9818,-94.9186,1008.96,11111222 
TABS,ioos:station:wmo:42043:1,2012-04-05T04:00:00Z,28.9818,-94.9186,1008.45,11111222 
TABS,ioos:station:wmo:42043:1,2012-04-05T04:30:00Z,28.9818,-94.9186,1008.48,11111222 
TABS,ioos:station:wmo:42043:1,2012-04-05T05:00:00Z,28.9818,-94.9186,1008.51,11111222 
TABS,ioos:station:wmo:42043:1,2012-04-05T05:30:00Z,28.9818,-94.9186,1008.51,11111222 
TABS,ioos:station:wmo:42043:1,2012-04-05T06:00:00Z,28.9818,-94.9186,1008.54,11111222 
TABS,ioos:station:wmo:42043:1,2012-04-05T06:30:00Z,28.9818,-94.9186,1008.32,11111222 
TABS,ioos:station:wmo:42043:1,2012-04-05T07:00:00Z,28.9818,-94.9186,1008.2,11111222 
TABS,ioos:station:wmo:42043:1,2012-04-05T07:30:00Z,28.9818,-94.9186,1007.93,11111222 
TABS,ioos:station:wmo:42043:1,2012-04-05T08:00:00Z,28.9818,-94.9186,1007.97,11111222 
TABS,ioos:station:wmo:42043:1,2012-04-05T08:30:00Z,28.9818,-94.9186,1008.0,11111222 
TABS,ioos:station:wmo:42043:1,2012-04-05T09:00:00Z,28.9818,-94.9186,1008.02,11111222 
TABS,ioos:station:wmo:42043:1,2012-04-05T09:30:00Z,28.9818,-94.9186,1008.07,11111222 
TABS,ioos:station:wmo:42043:1,2012-04-05T10:00:00Z,28.9818,-94.9186,1008.18,11111222 
TABS,ioos:station:wmo:42043:1,2012-04-05T10:30:00Z,28.9818,-94.9186,1008.04,11111222 
TABS,ioos:station:wmo:42043:1,2012-04-05T11:00:00Z,28.9818,-94.9186,1008.15,11111222 
TABS,ioos:station:wmo:42043:1,2012-04-05T11:30:00Z,28.9818,-94.9186,1008.28,11111222 
TABS,ioos:station:wmo:42043:1,2012-04-05T12:00:00Z,28.9818,-94.9186,1008.5,11111222 
TABS,ioos:station:wmo:42043:1,2012-04-05T12:30:00Z,28.9818,-94.9186,1008.8,11111222 
TABS,ioos:station:wmo:42043:1,2012-04-05T13:00:00Z,28.9818,-94.9186,1008.84,11111222 
TABS,ioos:station:wmo:42043:1,2012-04-05T13:30:00Z,28.9818,-94.9186,1008.91,11111222 
TABS,ioos:station:wmo:42043:1,2012-04-05T14:00:00Z,28.9818,-94.9186,1009.18,11111222 
TABS,ioos:station:wmo:42043:1,2012-04-05T14:30:00Z,28.9818,-94.9186,1009.48,11111222 
TABS,ioos:station:wmo:42043:1,2012-04-05T15:00:00Z,28.9818,-94.9186,1009.76,11111222 
TABS,ioos:station:wmo:42043:1,2012-04-05T15:30:00Z,28.9818,-94.9186,1010.25,11111222 
TABS,ioos:station:wmo:42043:1,2012-04-05T16:00:00Z,28.9818,-94.9186,1010.56,11111222 
TABS,ioos:station:wmo:42043:1,2012-04-05T16:30:00Z,28.9818,-94.9186,1010.58,11111222 
TABS,ioos:station:wmo:42043:1,2012-04-05T17:00:00Z,28.9818,-94.9186,1010.41,11111222 
TABS,ioos:station:wmo:42043:1,2012-04-05T17:30:00Z,28.9818,-94.9186,1010.35,11111222 
TABS,ioos:station:wmo:42043:1,2012-04-05T18:00:00Z,28.9818,-94.9186,1010.19,11111222 
TABS,ioos:station:wmo:42043:1,2012-04-05T18:30:00Z,28.9818,-94.9186,1009.98,11111222 
TABS,ioos:station:wmo:42043:1,2012-04-05T19:00:00Z,28.9818,-94.9186,1009.63,11111222 
TABS,ioos:station:wmo:42043:1,2012-04-05T19:30:00Z,28.9818,-94.9186,1009.17,11111222 
TABS,ioos:station:wmo:42043:1,2012-04-05T20:00:00Z,28.9818,-94.9186,1008.84,11111222 
TABS,ioos:station:wmo:42043:1,2012-04-05T20:30:00Z,28.9818,-94.9186,1008.42,11111222 
TABS,ioos:station:wmo:42043:1,2012-04-05T21:00:00Z,28.9818,-94.9186,1008.21,11111222 
TABS,ioos:station:wmo:42043:1,2012-04-05T21:30:00Z,28.9818,-94.9186,1007.81,11111222 
TABS,ioos:station:wmo:42043:1,2012-04-05T22:00:00Z,28.9818,-94.9186,1007.87,11111222 
TABS,ioos:station:wmo:42043:1,2012-04-05T22:30:00Z,28.9818,-94.9186,1008.09,11111222 
TABS,ioos:station:wmo:42043:1,2012-04-05T23:00:00Z,28.9818,-94.9186,1008.08,11111222 
TABS,ioos:station:wmo:42043:1,2012-04-05T23:30:00Z,28.9818,-94.9186,1008.09,11111222 
TABS,ioos:station:wmo:42043:1,2012-04-06T00:00:00Z,28.9818,-94.9186,1008.22,11111222 
TABS,ioos:station:wmo:42043:1,2012-04-06T00:30:00Z,28.9818,-94.9186,1008.54,11111222 
TABS,ioos:station:wmo:42043:1,2012-04-06T01:00:00Z,28.9818,-94.9186,1009.02,11111222 
TABS,ioos:station:wmo:42043:1,2012-04-06T01:30:00Z,28.9818,-94.9186,1009.11,11111222 
TABS,ioos:station:wmo:42043:1,2012-04-06T02:00:00Z,28.9818,-94.9186,1009.46,11111222 
TABS,ioos:station:wmo:42043:1,2012-04-06T02:30:00Z,28.9818,-94.9186,1009.88,11111222 
TABS,ioos:station:wmo:42043:1,2012-04-06T03:00:00Z,28.9818,-94.9186,1010.39,11111222 
TABS,ioos:station:wmo:42043:1,2012-04-06T03:30:00Z,28.9818,-94.9186,1010.74,11111222 
TABS,ioos:station:wmo:42043:1,2012-04-06T04:00:00Z,28.9818,-94.9186,1010.91,11111222 
TABS,ioos:station:wmo:42043:1,2012-04-06T04:30:00Z,28.9818,-94.9186,1011.21,11111222 
TABS,ioos:station:wmo:42043:1,2012-04-06T05:00:00Z,28.9818,-94.9186,1011.36,11111222 
TABS,ioos:station:wmo:42043:1,2012-04-06T05:30:00Z,28.9818,-94.9186,1011.59,11111222 
TABS,ioos:station:wmo:42043:1,2012-04-06T06:00:00Z,28.9818,-94.9186,1011.01,11111222 
TABS,ioos:station:wmo:42043:1,2012-04-06T06:30:00Z,28.9818,-94.9186,1011.49,11111222 
TABS,ioos:station:wmo:42043:1,2012-04-06T07:00:00Z,28.9818,-94.9186,1011.56,11111222 
TABS,ioos:station:wmo:42043:1,2012-04-06T07:30:00Z,28.9818,-94.9186,1011.47,11111222 
TABS,ioos:station:wmo:42043:1,2012-04-06T08:00:00Z,28.9818,-94.9186,1011.39,11111222 
TABS,ioos:station:wmo:42043:1,2012-04-06T08:30:00Z,28.9818,-94.9186,1011.19,11111222 
TABS,ioos:station:wmo:42043:1,2012-04-06T09:00:00Z,28.9818,-94.9186,1011.15,11111222 
TABS,ioos:station:wmo:42043:1,2012-04-06T09:30:00Z,28.9818,-94.9186,1011.23,11111222 
TABS,ioos:station:wmo:42043:1,2012-04-06T10:00:00Z,28.9818,-94.9186,1011.36,11111222 
TABS,ioos:station:wmo:42043:1,2012-04-06T10:30:00Z,28.9818,-94.9186,1011.5,11111222 
TABS,ioos:station:wmo:42043:1,2012-04-06T11:00:00Z,28.9818,-94.9186,1011.78,11111222 
TABS,ioos:station:wmo:42043:1,2012-04-06T11:30:00Z,28.9818,-94.9186,1012.19,11111222 
TABS,ioos:station:wmo:42043:1,2012-04-06T12:00:00Z,28.9818,-94.9186,1012.61,11111222 
TABS,ioos:station:wmo:42043:1,2012-04-06T12:30:00Z,28.9818,-94.9186,1013.14,11111222 
TABS,ioos:station:wmo:42043:1,2012-04-06T13:00:00Z,28.9818,-94.9186,1013.5,11111222 
TABS,ioos:station:wmo:42043:1,2012-04-06T13:30:00Z,28.9818,-94.9186,1013.82,11111222 
TABS,ioos:station:wmo:42043:1,2012-04-06T14:00:00Z,28.9818,-94.9186,1014.09,11111222 
TABS,ioos:station:wmo:42043:1,2012-04-06T14:30:00Z,28.9818,-94.9186,1014.44,11111222 
TABS,ioos:station:wmo:42043:1,2012-04-06T15:00:00Z,28.9818,-94.9186,1014.77,11111222 
TABS,ioos:station:wmo:42043:1,2012-04-06T15:30:00Z,28.9818,-94.9186,1015.03,11111222 
TABS,ioos:station:wmo:42043:1,2012-04-06T16:00:00Z,28.9818,-94.9186,1015.29,11111222 
TABS,ioos:station:wmo:42043:1,2012-04-06T16:30:00Z,28.9818,-94.9186,1015.25,11111222 
TABS,ioos:station:wmo:42043:1,2012-04-06T17:00:00Z,28.9818,-94.9186,1015.22,11111222 
TABS,ioos:station:wmo:42043:1,2012-04-06T17:30:00Z,28.9818,-94.9186,1015.15,11111222 
TABS,ioos:station:wmo:42043:1,2012-04-06T18:00:00Z,28.9818,-94.9186,1015.13,11111222 
TABS,ioos:station:wmo:42043:1,2012-04-06T18:30:00Z,28.9818,-94.9186,1015.08,11111222 